User: anonymous   Login
Location: Unspecified
(0.0000°N, 0.0000°E)
Time: 00:23:00
(UTC+00:00)
Language:

N. Korean satellite - Orbit

View from above orbital plane
View from above orbital plane
View from above satellite
View from above satellite

Ground track
Ground track

The orbit data is extracted from the following two-line orbital elements,

1 39026U 12072A   15113.63787070  .00012888  00000-0  59098-3 0  9992
2 39026 097.2882 147.0519 0048466 067.8142 292.8225 15.19500712130422
Epoch (UTC): 23 April 2015 15:18:32
Eccentricity: 0.0048466
inclination: 97.2882°
perigee height: 474 km
apogee height: 541 km
right ascension of ascending node: 147.0519°
argument of perigee: 67.8142°
revolutions per day: 15.19500712
mean anomaly at epoch: 292.8225°
orbit number at epoch: 13042

The dashed part of the orbit path shows where the satellite is in the earth's shadow,  

DLR